Kezdőlap
METAR-TAF:

METAR-TAF

Repülőterek :

Pella Municipal Airport

Pella, Iowa, Amerikai Egyesült Államok

földrajzi szélesség: 41-24N, földrajzi hosszúság: 092-56W, magasság: 270 m

Jelenlegi meteorológiai megfigyelések

A jelentés 17 perccel ezelõtt készült, 20:15 UTC
Dél-délnyugati szél 12 kt
Hőmérséklet 11°C
Páratartalom 40%
Légköri nyomás 1018 hPa
Látótávolság: 16.1 km
Derült ég

METAR: KPEA 222015Z AUTO 20012KT 10SM CLR 11/M02 A3005 RMK AO2 T01091016

Idő: 14:32 (20:32 UTC)


TAF: hiányzik

Meteorológiai megfigyelések és előrejelzések több, mint 4000 repülőtéren (METAR és TAF jelentéseket).

A térképen piros és sárga pontok jelzik az elérhető meteorológiai állomásokat.

Mozgassa az egeret a pont fölött, hogy megjelenjen az állomás neve.

Azután kattintson az időjárási megfigyelések és előrejelzések megtekintéséhez.

A térkép megváltoztatása: kattintson a fekete keresztel jelölt zöld gombra ráközelítéshez, a vonallal jelölt zöld gombra távolításhoz, vagy a zöld nyilakra a szomszédos térképek eléréséhez.


METAR-TAF: